Date String (YYYY-MM-DD hh:mm:ss) UTC,Instrument flags,absolute air pressure of the measurement (hPa),sample flow rate (lpm),inlet stack bypass flow (lpm),air temperature of the measurement (°C),ambient temperature measured by the external sensor (°C),aerosol sample conditioner tube jacket temperature (°C),OPC LED temperature (°C),internal box temperature (°C),relative humidity of the measurement (%),span deviation,mass concentration of particles derived from Lorenz-Mie calculation of OPC scattering (μg/m³),mass concentration of particles derived from Lorenz-Mie calculation of OPC scattering (μg/m³),mass concentration of particles derived from Lorenz-Mie calculation of OPC scattering (μg/m³)
DateTimeUTC,F1_M11,P_M11,Q1_M11,Q2_M11,T1_M11,T2_M11,T3_M11,T4_M11,T5_M11,U1_M11,ZSPAN_M11,X0_M11,X2_M11,X1_M11
2023-12-29 14:00:00,SystemResetWarning,0835.4,5.00,000.00,018.6,017.2,000.0,027.2,020.0,6.8,0000.0,0000.40,0000.29,0000.24
2023-12-29 14:01:00,SystemResetWarning,0835.3,5.00,000.00,018.6,017.2,000.0,027.2,020.0,6.9,0000.0,0000.40,0000.29,0000.24
2023-12-29 14:02:00,SystemResetWarning,0835.2,5.00,000.00,018.6,017.2,000.0,027.1,020.0,6.8,0000.0,0000.42,0000.30,0000.24
2023-12-29 14:03:00,SystemResetWarning,0835.3,5.01,000.00,018.6,017.5,000.0,027.1,020.2,6.8,0000.0,0000.43,0000.31,0000.25
2023-12-29 14:04:00,SystemResetWarning,0835.3,5.00,000.00,018.8,018.4,000.0,027.1,020.6,6.7,0000.0,0000.42,0000.30,0000.25
2023-12-29 14:05:00,SystemResetWarning,0835.3,4.99,000.00,018.9,018.8,000.0,027.1,020.6,6.7,0000.0,0000.41,0000.30,0000.25
2023-12-29 14:06:00,SystemResetWarning,0835.3,4.99,000.00,018.9,018.7,000.0,027.1,020.4,6.6,0000.0,0000.39,0000.29,0000.25
2023-12-29 14:07:00,SystemResetWarning,0835.3,5.01,000.00,018.9,018.6,000.0,027.1,020.3,6.6,0000.0,0000.38,0000.28,0000.25
2023-12-29 14:08:00,SystemResetWarning,0835.3,5.01,000.00,018.9,018.4,000.0,027.1,020.1,6.6,0000.0,0000.39,0000.28,0000.25
2023-12-29 14:09:00,SystemResetWarning,0835.3,5.01,000.00,018.9,018.3,000.0,027.1,020.1,6.9,0000.0,0000.44,0000.27,0000.25
2023-12-29 14:10:00,SystemResetWarning,0835.3,5.00,000.00,018.8,018.1,000.0,027.1,020.0,6.7,0000.0,0000.73,0000.27,0000.25
2023-12-29 14:11:00,SystemResetWarning,0835.2,5.00,000.00,018.8,018.0,000.0,027.1,020.0,7.0,0000.0,0000.78,0000.28,0000.25
2023-12-29 14:12:00,SystemResetWarning,0835.3,5.00,000.00,018.8,017.9,000.0,027.1,020.0,7.1,0000.0,0000.79,0000.28,0000.25
2023-12-29 14:13:00,SystemResetWarning,0835.3,5.00,000.00,018.8,017.8,000.0,027.1,020.0,6.8,0000.0,0000.78,0000.28,0000.25
2023-12-29 14:14:00,SystemResetWarning,0835.4,5.00,000.00,018.7,017.7,000.0,027.1,020.0,6.8,0000.0,0000.78,0000.28,0000.24
2023-12-29 14:15:00,SystemResetWarning,0835.2,4.99,000.00,018.7,017.7,000.0,027.1,020.0,6.8,0000.0,0000.81,0000.29,0000.24
2023-12-29 14:16:00,SystemResetWarning,0835.2,5.00,000.00,018.7,017.6,000.0,027.1,020.0,6.8,0000.0,0000.85,0000.30,0000.25
2023-12-29 14:17:00,SystemResetWarning,0835.4,5.00,000.00,018.7,017.6,000.0,027.2,020.0,6.8,0000.0,0000.86,0000.31,0000.25
2023-12-29 14:18:00,SystemResetWarning,0835.2,5.01,000.00,018.7,017.5,000.0,027.2,020.0,6.8,0000.0,0000.87,0000.31,0000.25
2023-12-29 14:19:00,SystemResetWarning,0835.2,5.01,000.00,018.7,017.5,000.0,027.2,020.0,6.8,0000.0,0000.86,0000.31,0000.25
2023-12-29 14:20:00,SystemResetWarning,0835.2,5.00,000.00,018.7,017.4,000.0,027.2,020.0,7.0,0000.0,0000.85,0000.30,0000.25
2023-12-29 14:21:00,SystemResetWarning,0835.2,5.00,000.00,018.6,017.4,000.0,027.2,020.0,6.9,0000.0,0000.54,0000.31,0000.25
2023-12-29 14:22:00,SystemResetWarning,0835.2,5.00,000.00,018.6,017.4,000.0,027.2,020.0,6.8,0000.0,0000.54,0000.31,0000.26
2023-12-29 14:23:00,SystemResetWarning,0835.2,5.00,000.00,018.6,017.4,000.0,027.2,020.0,6.9,0000.0,0000.51,0000.31,0000.26
2023-12-29 14:24:00,SystemResetWarning,0835.2,5.00,000.00,018.6,017.3,000.0,027.2,020.0,6.9,0000.0,0000.51,0000.31,0000.26
2023-12-29 14:25:00,SystemResetWarning,0835.2,5.00,000.00,018.6,017.3,000.0,027.2,020.0,6.8,0000.0,0000.49,0000.31,0000.27
2023-12-29 14:26:00,SystemResetWarning,0835.2,5.00,000.00,018.6,017.3,000.0,027.2,020.0,6.8,0000.0,0000.46,0000.30,0000.27
2023-12-29 14:27:00,SystemResetWarning,0835.3,5.00,000.00,018.6,017.3,000.0,027.2,020.0,6.9,0000.0,0000.43,0000.28,0000.26
2023-12-29 14:28:00,SystemResetWarning,0835.2,5.00,000.00,018.6,017.3,000.0,027.2,020.0,6.9,0000.0,0000.43,0000.28,0000.26
2023-12-29 14:29:00,SystemResetWarning,0835.2,5.00,000.00,018.6,017.3,000.0,027.2,020.0,6.9,0000.0,0000.43,0000.28,0000.26
2023-12-29 14:30:00,SystemResetWarning,0835.2,5.01,000.00,018.6,017.2,000.0,027.2,020.0,6.9,0000.0,0000.43,0000.28,0000.26
2023-12-29 14:31:00,SystemResetWarning,0835.2,5.01,000.00,018.6,017.2,000.0,027.2,020.0,6.9,0000.0,0000.43,0000.29,0000.26
2023-12-29 14:32:00,SystemResetWarning,0835.2,5.00,000.00,018.6,017.2,000.0,027.2,020.0,6.9,0000.0,0000.38,0000.28,0000.26
2023-12-29 14:33:00,SystemResetWarning,0835.2,4.99,000.00,018.6,017.2,000.0,027.2,020.0,6.9,0000.0,0000.31,0000.26,0000.25
2023-12-29 14:34:00,SystemResetWarning,0835.4,5.00,000.00,018.6,017.2,000.0,027.2,020.0,6.9,0000.0,0000.32,0000.27,0000.26
2023-12-29 14:35:00,SystemResetWarning,0835.2,4.99,000.00,018.6,017.2,000.0,027.2,020.0,6.9,0000.0,0000.33,0000.26,0000.25
2023-12-29 14:36:00,SystemResetWarning,0835.2,5.00,000.00,018.6,017.3,000.0,027.2,020.1,6.9,0000.0,0000.35,0000.27,0000.25
2023-12-29 14:37:00,SystemResetWarning,0835.3,5.02,000.00,018.7,018.0,000.0,027.1,020.4,6.9,0000.0,0000.38,0000.27,0000.24
2023-12-29 14:38:00,SystemResetWarning,0835.3,5.00,000.00,018.8,018.9,000.0,027.1,020.8,6.9,0000.0,0000.41,0000.28,0000.24
2023-12-29 14:39:00,SystemResetWarning,0835.2,4.99,000.00,018.9,019.0,000.0,027.1,020.6,6.9,0000.0,0000.41,0000.28,0000.24
2023-12-29 14:40:00,SystemResetWarning,0835.2,4.99,000.00,018.9,018.9,000.0,027.1,020.4,6.9,0000.0,0000.44,0000.29,0000.24
2023-12-29 14:41:00,SystemResetWarning,0835.2,5.00,000.00,018.9,018.7,000.0,027.1,020.3,6.9,0000.0,0000.55,0000.33,0000.25
2023-12-29 14:42:00,SystemResetWarning,0835.2,5.01,000.00,018.9,018.5,000.0,027.1,020.2,6.9,0000.0,0000.57,0000.33,0000.25
2023-12-29 14:43:00,SystemResetWarning,0835.2,5.00,000.00,018.9,018.3,000.0,027.1,020.1,7.0,0000.0,0000.59,0000.34,0000.26
2023-12-29 14:44:00,SystemResetWarning,0835.2,5.00,000.00,018.9,018.2,000.0,027.1,020.1,7.0,0000.0,0000.60,0000.35,0000.26
2023-12-29 14:45:00,SystemResetWarning,0835.2,5.00,000.00,018.8,018.1,000.0,027.1,020.0,7.0,0000.0,0000.60,0000.35,0000.26
2023-12-29 14:46:00,SystemResetWarning,0835.3,5.01,000.00,018.8,018.0,000.0,027.1,020.0,7.0,0000.0,0000.60,0000.36,0000.27
2023-12-29 14:47:00,SystemResetWarning,0835.3,5.01,000.00,018.8,017.9,000.0,027.1,020.0,6.9,0000.0,0000.58,0000.35,0000.27
2023-12-29 14:48:00,SystemResetWarning,0835.2,5.00,000.00,018.8,017.8,000.0,027.1,020.0,6.9,0000.0,0000.65,0000.37,0000.28
2023-12-29 14:49:00,SystemResetWarning,0835.2,5.00,000.00,018.7,017.8,000.0,027.1,020.0,6.9,0000.0,0000.73,0000.38,0000.28
2023-12-29 14:50:00,SystemResetWarning,0835.2,5.00,000.00,018.7,017.7,000.0,027.1,020.0,6.9,0000.0,0000.72,0000.37,0000.28
2023-12-29 14:51:00,SystemResetWarning,0835.2,5.00,000.00,018.7,017.7,000.0,027.1,020.0,6.9,0000.0,0001.23,0000.37,0000.29
2023-12-29 14:52:00,SystemResetWarning,0835.2,5.00,000.00,018.7,017.6,000.0,027.1,020.0,7.0,0000.0,0001.81,0000.34,0000.29
2023-12-29 14:53:00,SystemResetWarning,0835.2,5.00,000.00,018.7,017.6,000.0,027.1,020.0,7.0,0000.0,0001.80,0000.33,0000.28
2023-12-29 14:54:00,SystemResetWarning,0835.2,4.99,000.00,018.7,017.6,000.0,027.1,020.0,7.0,0000.0,0001.81,0000.34,0000.28
2023-12-29 14:55:00,SystemResetWarning,0835.3,4.99,000.00,018.7,017.6,000.0,027.1,020.0,7.0,0000.0,0001.81,0000.34,0000.28
2023-12-29 14:56:00,SystemResetWarning,0835.2,5.00,000.00,018.7,017.6,000.0,027.1,020.0,6.9,0000.0,0001.81,0000.34,0000.28
2023-12-29 14:57:00,SystemResetWarning,0835.3,5.00,000.00,018.7,017.6,000.0,027.1,020.0,6.9,0000.0,0001.82,0000.34,0000.29
2023-12-29 14:58:00,SystemResetWarning,0835.2,5.00,000.00,018.7,017.5,000.0,027.1,020.0,6.9,0000.0,0001.82,0000.34,0000.29
2023-12-29 14:59:00,SystemResetWarning,0835.3,5.00,000.00,018.7,017.5,000.0,027.1,020.0,6.9,0000.0,0001.77,0000.33,0000.28
